This is the latest recevied weather packets stored in our database for station/object SP6KBU-12. If no packets are shown the sender has not sent any weather packets the latest 10 day(s).
| Time | Temp. | Humidity | Pressure | Rain* | Wind** | Luminosity | Snow |
|---|---|---|---|---|---|---|---|
| 1777831343 | 20.56° C | 26% | 1015 hPa | - | - | - | - |
| 1777830441 | 21.67° C | 24% | 1015 hPa | - | - | - | - |
| 1777830348 | 23.33° C | 23% | 1015.1 hPa | - | - | - | - |
| 1777829540 | 23.33° C | 23% | 1015.1 hPa | - | - | - | - |
| 1777828640 | 23.89° C | 22% | 1015.2 hPa | - | - | - | - |
| 1777827739 | 23.33° C | 23% | 1015.1 hPa | - | - | - | - |
| 1777826839 | 23.33° C | 24% | 1015.3 hPa | - | - | - | - |
| 1777825939 | 23.89° C | 23% | 1015.3 hPa | - | - | - | - |
| 1777825039 | 25.56° C | 21% | 1015.3 hPa | - | - | - | - |
| 1777824140 | 26.11° C | 20% | 1015.4 hPa | - | - | - | - |
| 1777823239 | 25.56° C | 20% | 1015.4 hPa | - | - | - | - |
| 1777822339 | 26.11° C | 20% | 1015.5 hPa | - | - | - | - |
| 1777821439 | 26.11° C | 21% | 1015.6 hPa | - | - | - | - |
| 1777820539 | 25.56° C | 21% | 1015.7 hPa | - | - | - | - |
| 1777819639 | 25.56° C | 21% | 1015.9 hPa | - | - | - | - |
| 1777818739 | 25.56° C | 20% | 1016 hPa | - | - | - | - |
| 1777817838 | 25.56° C | 20% | 1016.1 hPa | - | - | - | - |
| 1777816938 | 25.56° C | 21% | 1016.2 hPa | - | - | - | - |
| 1777816037 | 25.56° C | 20% | 1016.4 hPa | - | - | - | - |
| 1777815138 | 25.56° C | 20% | 1016.7 hPa | - | - | - | - |
| 1777814237 | 25.56° C | 20% | 1016.8 hPa | - | - | - | - |
| 1777813341 | 25° C | 20% | 1016.9 hPa | - | - | - | - |
| 1777812437 | 25° C | 20% | 1017.2 hPa | - | - | - | - |
| 1777811536 | 24.44° C | 21% | 1017.2 hPa | - | - | - | - |
| 1777810635 | 24.44° C | 20% | 1017.2 hPa | - | - | - | - |
* Rain since midnight (hover to see other rain measurements)
** Current wind speed in m/s (hover to see current wind gust speed)